Погода в Прачинбури

Таиланд     14°03′29″N   101°21′57″E
темп.,
°C
ветер,
м/с
пор.,
м/с
влажн.,
%
обл.,
%
осадки,
мм/ч
давл.,
гПа
погр.,
м
29 июня, ср
ср2901:00+27ю22795 0.0 100518
04:00+26ююв118399 0.0 100423
07:00+27вюв1181100 0.0 1005110
10:00+32з3462100 0.0 10051355
13:00+34зюз4547100 0.0 10031799
16:00+35з3544100 0.0 10012028
19:00+30юз4964100 0.0 1001213
22:00+29юз116883 0.0 100435
30 июня, чт
чт3001:00+27юв1177100 0.2 100312
04:00+27зюз1179100 0.0 100322
07:00+27з2477100 0.0 1004217
10:00+29з3667100 0.0 1005769
13:00+35з674894 0.0 10022171
16:00+31ююз5965100 0.1 1001307
19:00+28юз61175100 0.9 1002340
22:00+26зюз1790100 6.1 1005278
1 июля, пт
пт101:00+26зюз2685100 6.1 1004236
04:00+25зюз2286100 0.0 100334
07:00+26зюз1381100 0.0 1005166
10:00+31з4760100 0.0 10051298
13:00+34з674877 0.0 10032077
16:00+31зюз476091 0.1 1001232
19:00+29ююз61168100 0.4 1003380
22:00+26зюз3782100 1.6 1005185
2 июля, сб
сб201:00+26з2282100 1.6 100420
04:00+25зсз1182100 0.0 100311
07:00+26з1679100 0.0 1004257
10:00+30зюз5761100 0.0 10051091
13:00+32зюз5752100 0.0 10031806
16:00+33юз665250 0.0 10011721
19:00+28юз61166100 0.1 1002468
22:00+27зюз4107151 0.0 1005379
3 июля, вс
вс301:00+26з237595 0.1 100478
04:00+25зсз1277100 0.0 100319
07:00+26зсз1376100 0.0 1004184
10:00+30зюз4663100 0.0 10051008
13:00+33зюз6752100 0.0 10031895
16:00+28ююз61074100 0.8 1002385
19:00+28юз5973100 1.8 1003286
22:00+27зюз3580100 0.1 1004145